SKRG

José María Córdova International Airport

Airport
ICAO code
SKRG
IATA Code
MDE
Summary
ICAO Region
CARSAM
ICAO Territory
Location

Rionegro, Antioquia

Serving
Medellín
Elevation
7027 ft
Coordinates
6° 10' 15" N , 75° 25' 39" W
KCC
Metar
SKRG 140500Z 05003KT 5000 DZ SCT008 OVC060 15/15 Q1027 NOSIG

José María Córdova International Airport is located in the city of Rionegro, 20 kilometres (12 mi) south-east of Medellín.

Climatology

Tropical rainforest climate (Köppen climate classification Af)

Runways

Designator Length Width Surface Rops
18/36 3500 45 ASP Yes/Yes

Airport map

Aerial View

SKYbrary Partners:

Safety knowledge contributed by: